Temperature
24 23 23 22 21 20 20 20 19 19 19 19 19 19 19 19 19 19 19 19 18 18 18 18 18 18 18 18 18 18 18 18 18 18 18 18 18 18 18 18 18 18 17
25 24 23 22 21 20 20 20 19 19 19 19 19 19 19 19 19 19 19 19 18 18 18 18 18 18 18 18 18 18 18 18 18 18 18 18 18 18 18 18 18 18 18
25 24 23 23 22 21 20 20 20 19 19 19 19 19 19 19 19 19 19 18 18 18 19 18 18 18 18 18 18 18 18 18 18 18 18 18 18 18 18 18 18 18 18
26 25 24 23 22 21 21 20 20 20 19 19 19 19 19 19 19 19 19 19 18 18 18 18 18 18 18 18 18 18 18 18 18 19 19 19 19 18 18 18 18 18 17
26 25 24 23 23 22 21 20 20 20 20 20 19 19 19 19 19 19 19 19 19 18 18 18 18 18 18 18 18 18 18 18 18 18 19 19 19 19 18 18 18 18 18
27 26 25 24 23 22 21 21 20 20 20 20 19 19 19 19 19 19 19 19 19 19 18 18 18 18 18 18 18 18 18 18 18 18 18 18 18 18 18 18 18 18 18
27 26 25 24 23 23 22 21 20 20 20 20 20 19 19 19 19 19 19 19 19 19 18 18 18 18 18 18 18 18 18 18 18 18 18 18 18 18 18 18 18 18 17
27 26 25 24 23 23 22 21 21 20 20 20 20 20 20 19 19 19 19 19 19 19 18 18 18 18 18 18 18 18 18 18 18 18 18 18 18 18 18 18 18 18 17
27 27 26 25 24 23 22 22 21 20 20 20 20 20 20 19 19 19 19 19 19 19 19 18 18 18 18 18 18 18 18 18 18 18 18 18 18 18 18 18 18 18 17
28 27 26 25 24 23 23 22 21 21 20 20 20 20 20 19 19 19 19 19 19 19 19 18 18 18 18 18 18 18 18 18 18 18 18 18 18 18 18 18 18 18 18
27 26 26 25 24 24 23 22 21 21 20 20 20 20 19 19 19 19 19 19 19 19 18 18 18 18 18 18 18 18 18 18 17 17 17 17 18 17 17 17 17 18 18
27 26 25 25 24 24 23 22 22 21 21 20 20 20 19 19 19 19 19 18 18 18 18 18 18 18 18 18 18 17 17 17 17 17 17 17 17 17 17 17 17 17 17
26 26 25 24 24 23 23 22 22 21 21 20 20 20 19 19 19 19 18 18 18 18 18 18 18 18 18 18 18 17 17 17 17 17 17 17 17 17 17 17 17 17 17
26 25 24 24 23 23 22 22 22 21 21 20 20 20 19 19 19 18 18 18 18 18 18 18 18 18 18 18 18 17 17 17 17 17 17 17 17 17 17 16 16 17 17
26 25 24 23 23 22 22 21 21 21 21 20 20 20 19 19 18 18 18 18 18 18 18 18 18 18 17 17 17 17 17 17 17 17 17 17 17 17 17 16 16 16 17
25 24 23 23 22 22 22 21 21 21 20 20 20 19 19 19 18 18 18 18 18 18 18 18 18 17 17 17 17 17 17 17 17 17 17 17 17 17 17 16 16 16 16
24 24 23 23 22 22 21 21 21 20 20 20 19 19 19 18 18 18 18 18 18 18 18 18 17 17 18 17 17 17 17 17 17 17 17 16 16 16 16 16 16 16 16
23 23 22 22 22 22 21 21 20 20 20 19 19 19 18 18 18 18 18 18 18 17 17 17 17 17 18 18 17 17 17 17 17 17 17 16 17 16 16 16 16 16 16
22 22 22 22 22 21 21 20 20 20 19 19 19 18 18 18 18 17 17 17 17 17 17 17 17 17 17 17 17 17 17 16 16 16 16 17 16 16 16 16 16 16 16
22 22 22 21 21 21 20 20 20 19 19 18 18 18 18 18 17 17 17 17 17 17 17 17 17 17 17 17 17 17 17 16 16 16 16 16 16 16 16 16 16 16 16
21 21 21 21 20 20 20 19 19 19 19 18 18 18 17 17 17 17 17 17 17 17 16 17 17 17 17 17 17 17 16 16 16 16 16 16 16 16 16 16 16 16 16
21 20 20 20 19 19 19 19 19 18 18 18 18 17 17 17 17 17 17 17 17 17 17 17 17 17 17 17 17 17 17 16 16 16 16 16 16 16 16 16 16 16 16
20 20 19 19 19 19 18 18 18 18 18 18 17 17 17 17 17 17 16 17 17 16 16 16 17 17 17 17 17 17 17 16 16 16 16 16 16 16 16 16 16 15 15
19 19 19 18 18 18 18 18 18 18 17 17 17 17 17 17 16 16 16 16 16 16 16 16 16 16 16 17 17 16 16 16 16 16 15 15 15 15 15 15 15 15 15
18 18 18 18 17 17 17 17 17 17 17 17 17 16 16 16 16 16 16 16 16 16 16 16 16 16 16 16 16 16 16 16 16 15 15 15 15 15 15 15 15 15 15
17 17 17 17 17 17 16 17 17 17 16 16 16 16 16 16 16 16 16 16 16 16 16 16 17 16 16 16 16 16 16 16 15 15 15 15 15 15 15 15 15 15 15
Wind_Speed
10 9 8 8 8 6 5 4 3 3 1 1 1 1 1 1 2 3 3 3 2 3 2 1 2 1 1 2 1 1 1 1 1 2 1 1 2 2 2 2 2 4 5
10 10 9 8 8 7 5 4 3 3 2 1 1 1 1 1 2 2 4 4 2 2 3 1 1 1 1 1 1 1 0 1 1 1 1 1 0 0 2 3 3 3 4
12 11 10 8 8 7 6 5 4 3 2 1 1 1 1 0 2 3 3 2 2 2 2 2 1 0 1 2 1 1 1 1 1 1 1 1 1 0 1 2 2 3 3
11 11 10 9 9 8 8 6 5 4 3 2 1 1 2 1 1 2 2 2 3 2 2 2 1 0 1 1 1 1 1 1 1 1 1 0 2 1 1 1 2 3 2
11 11 11 10 9 9 8 8 6 5 3 3 2 2 1 1 1 2 3 2 2 3 2 2 1 1 1 1 0 1 1 1 1 1 1 0 1 2 2 2 2 2 2
10 10 10 9 8 8 8 8 7 6 4 4 3 3 2 1 1 1 2 2 2 2 2 3 2 2 1 1 1 1 1 1 1 2 2 1 1 1 1 2 2 2 2
9 10 10 10 8 8 8 8 8 6 5 4 3 3 3 3 3 2 2 2 2 2 2 2 2 2 2 2 2 2 1 1 1 1 2 2 1 0 1 1 2 2 2
8 8 9 9 9 8 7 7 7 6 6 5 4 3 4 3 3 3 3 2 2 3 3 3 2 2 1 1 1 1 2 2 2 1 1 2 1 1 0 1 1 2 1
8 8 9 9 9 9 7 7 7 6 5 5 5 4 4 4 3 3 3 2 2 3 3 3 2 1 0 0 0 1 1 0 0 1 1 1 1 1 1 0 0 1 2
6 7 8 9 9 9 8 8 8 7 5 5 4 5 4 4 3 3 2 2 2 2 3 2 2 2 1 1 1 1 1 1 1 1 0 1 1 1 1 1 1 1 1
5 5 6 7 8 8 8 7 7 7 6 5 4 2 3 4 3 3 3 2 2 3 3 3 2 2 2 1 1 1 1 2 1 1 1 0 1 1 2 2 1 1 0
5 6 5 5 5 5 6 6 6 6 6 5 4 3 2 3 4 3 3 3 3 3 4 3 3 3 2 1 1 2 1 1 1 1 0 1 1 1 2 2 2 1 1
5 5 5 4 4 3 3 4 4 5 5 5 5 4 4 3 3 3 3 4 3 3 3 3 3 2 2 1 1 1 1 1 1 1 1 1 1 1 1 2 1 2 2
5 4 4 4 3 3 3 3 3 4 4 4 5 5 4 3 3 3 3 3 4 3 3 3 3 3 2 2 2 2 2 1 1 1 1 1 1 1 2 2 2 2 2
4 3 3 3 2 2 3 3 3 2 3 4 4 4 4 3 3 3 3 3 4 4 4 3 3 3 3 3 3 3 3 2 2 1 1 1 1 1 1 1 1 2 2
3 2 2 2 2 1 2 4 3 3 3 3 3 3 3 3 4 4 4 4 3 3 4 4 4 4 3 2 2 1 2 1 2 2 2 2 3 3 3 2 1 1 2
3 3 1 1 1 1 2 3 3 3 3 3 3 3 3 3 3 4 4 4 4 4 4 4 3 3 2 3 3 2 2 2 2 3 3 4 3 3 3 3 4 3 4
3 3 3 1 1 1 1 2 3 2 2 3 2 3 3 3 3 3 3 3 3 4 4 4 4 3 3 4 3 3 3 3 4 4 4 3 2 2 2 3 3 3 3
4 3 3 3 2 2 1 2 2 3 2 3 3 3 3 3 3 3 3 3 3 3 4 4 4 4 3 4 4 3 3 4 4 5 4 3 3 2 2 3 4 3 3
4 4 4 4 3 3 2 2 3 3 4 4 3 3 3 3 4 3 4 4 4 4 4 4 5 4 4 5 6 5 4 4 4 4 3 4 3 4 3 4 4 5 5
4 4 4 4 3 3 2 0 1 2 2 3 3 3 3 3 4 3 4 4 5 5 5 5 5 5 5 6 8 7 4 4 4 3 3 3 4 4 4 5 6 6 4
4 4 3 3 3 3 1 1 1 1 1 1 2 3 4 4 4 4 4 5 6 6 6 6 6 5 5 6 8 10 8 5 4 4 2 2 5 5 7 6 7 6 5
3 4 3 3 3 2 2 2 2 1 1 1 2 3 4 3 4 5 5 5 5 5 5 5 6 5 4 5 9 10 9 8 5 3 2 3 5 5 5 7 7 6 5
4 3 3 3 3 3 3 2 2 2 2 3 3 3 4 4 4 4 4 5 5 5 5 5 5 4 4 4 4 4 5 5 5 4 3 4 6 6 5 4 5 5 6
4 4 4 3 3 3 3 2 3 2 2 3 3 4 5 5 4 4 4 5 4 4 4 4 3 3 3 3 5 5 5 4 4 3 2 3 3 4 4 5 5 5 5
4 4 4 5 4 4 3 3 3 3 3 4 4 4 4 4 4 5 4 3 4 5 6 5 4 3 4 5 6 6 6 6 5 3 4 5 5 6 5 6 5 5 5
Wind_Direction
151 147 147 144 139 133 129 124 123 110 93 84 130 160 142 159 130 124 129 125 125 120 117 86 111 116 99 99 93 92 132 145 157 111 110 130 158 159 151 156 155 149 152
156 154 157 155 147 139 138 141 140 129 126 128 230 189 143 165 130 112 117 120 128 129 135 122 132 130 127 110 112 120 146 211 153 151 168 146 123 166 164 162 160 155 144
163 163 166 164 156 154 155 159 147 146 147 165 192 160 154 141 93 116 122 127 134 132 108 114 102 41 112 126 149 156 215 252 220 181 188 168 157 171 153 163 153 142 140
164 165 168 170 167 162 160 151 148 151 157 187 207 177 147 141 139 131 135 147 151 144 136 137 130 106 69 126 203 152 273 258 248 255 265 124 128 153 154 167 149 155 155
161 165 169 171 172 167 164 157 151 158 167 191 195 199 161 177 128 120 142 151 153 159 157 157 147 142 177 151 102 46 321 295 300 300 301 297 194 198 186 177 164 168 168
160 163 164 162 168 166 161 160 156 165 175 189 192 190 191 190 167 144 157 161 149 149 146 156 158 176 182 180 201 231 256 271 309 308 300 283 235 174 175 173 173 172 176
162 162 162 164 164 165 166 158 155 169 177 184 194 189 200 196 191 199 194 179 155 143 154 159 171 190 185 202 211 210 229 269 279 290 295 302 322 63 186 159 173 179 178
153 159 159 159 163 167 162 154 154 166 177 184 191 190 198 207 194 201 207 191 160 153 149 157 172 182 201 221 211 211 207 224 248 272 308 320 342 337 80 192 176 192 175
150 156 161 164 166 167 164 160 154 163 175 184 186 192 198 207 207 186 205 185 139 148 148 160 164 166 162 269 202 167 237 211 242 253 290 307 319 328 307 308 163 205 209
144 149 158 163 165 168 165 162 156 164 177 185 194 195 193 196 203 191 194 179 143 126 138 143 156 149 144 185 161 173 184 170 212 215 37 313 321 328 340 321 289 277 222
129 122 133 149 157 161 162 160 156 163 174 183 189 194 174 183 192 191 186 172 148 149 154 156 169 162 171 177 179 185 199 194 206 223 158 221 327 327 311 303 300 322 317
112 117 117 126 144 161 162 161 163 170 174 176 173 171 175 175 184 183 179 161 154 166 164 170 179 186 175 188 198 213 218 206 186 224 202 248 246 304 312 303 311 295 273
117 114 116 118 133 149 152 157 163 179 182 176 175 168 177 184 191 188 172 160 165 172 174 173 181 192 181 182 219 218 207 223 188 216 212 212 213 243 282 288 289 280 260
102 109 115 117 123 139 152 168 180 183 183 168 174 170 179 184 188 182 172 166 172 176 177 185 192 201 199 197 222 233 204 211 210 219 211 205 211 226 258 254 269 271 272
96 95 108 111 126 135 160 171 176 185 176 162 173 170 172 171 173 175 172 170 178 178 174 188 195 210 213 220 221 229 208 197 209 219 213 200 151 124 248 258 266 266 260
54 62 75 111 145 171 173 175 183 185 171 173 181 170 172 175 183 184 184 183 182 175 179 195 205 215 220 151 143 215 238 197 206 218 212 204 199 198 195 199 207 253 244
37 29 37 126 154 184 168 173 178 179 175 176 181 172 176 183 194 200 187 188 189 183 192 202 205 207 189 163 165 195 220 215 211 216 232 247 232 200 207 213 219 233 237
37 21 360 345 292 294 195 163 165 173 175 173 182 178 181 190 200 205 198 197 192 194 204 214 222 217 211 186 182 208 228 232 225 221 229 237 241 245 228 245 235 231 246
31 19 351 348 3 325 287 151 178 179 191 201 192 186 189 197 205 211 207 207 204 211 212 215 225 228 222 200 195 204 240 238 237 233 234 227 216 221 220 246 257 250 252
18 5 357 3 5 347 337 175 188 192 207 212 201 191 197 202 211 215 209 214 212 220 228 224 220 220 217 205 207 203 243 243 245 239 226 222 215 216 226 232 244 248 247
9 2 2 4 2 347 359 315 212 221 230 209 197 194 203 216 217 210 208 214 222 226 232 231 225 217 213 203 208 205 233 255 258 252 238 212 187 211 241 245 246 242 241
354 353 2 356 356 355 348 288 278 296 307 241 213 205 207 233 234 218 225 224 225 228 229 230 233 224 210 202 209 208 220 252 267 270 270 221 205 226 240 246 245 244 245
349 344 341 344 338 340 322 295 301 298 276 248 233 236 225 224 236 228 227 227 227 234 239 234 235 231 213 201 200 208 224 236 248 282 292 251 233 243 250 246 242 243 246
334 326 321 323 326 321 315 297 293 275 248 246 230 234 237 238 235 232 231 228 230 231 239 240 244 246 222 201 192 205 223 237 247 262 262 239 237 246 248 251 242 234 242
331 329 327 323 312 309 319 303 289 278 269 261 245 239 237 235 229 229 237 241 242 237 237 250 255 259 255 241 207 208 218 223 229 227 246 250 244 238 233 233 232 230 230
316 314 311 310 309 308 311 311 299 294 284 282 265 254 252 247 246 240 247 255 249 236 230 231 235 244 228 209 203 205 217 218 202 204 241 246 245 242 241 237 231 226 230
Height
1515 1517 1519 1520 1521 1521 1521 1521 1521 1521 1521 1522 1522 1523 1524 1525 1525 1525 1525 1526 1526 1527 1528 1528 1529 1530 1531 1531 1532 1532 1533 1534 1535 1536 1536 1537 1538 1538 1538 1539 1539 1540 1540
1514 1516 1518 1520 1520 1521 1521 1521 1521 1521 1521 1522 1523 1523 1524 1525 1525 1525 1525 1526 1526 1527 1528 1528 1529 1530 1531 1531 1532 1533 1533 1534 1535 1536 1536 1537 1539 1538 1539 1539 1539 1540 1540
1511 1514 1517 1519 1520 1520 1520 1521 1521 1521 1521 1522 1523 1524 1524 1525 1525 1525 1526 1526 1527 1527 1528 1528 1529 1530 1530 1531 1532 1533 1533 1534 1535 1535 1536 1537 1537 1538 1539 1539 1539 1539 1540
1509 1512 1515 1517 1518 1519 1520 1520 1520 1521 1521 1522 1523 1523 1524 1524 1525 1525 1526 1526 1527 1527 1528 1528 1529 1529 1530 1531 1531 1532 1533 1534 1534 1535 1535 1536 1536 1537 1538 1539 1538 1538 1539
1506 1509 1512 1515 1517 1518 1519 1520 1520 1520 1521 1522 1522 1523 1524 1524 1525 1526 1526 1526 1526 1527 1527 1528 1529 1529 1530 1530 1531 1531 1532 1533 1534 1534 1535 1535 1536 1536 1536 1537 1538 1538 1538
1504 1507 1511 1513 1515 1517 1518 1519 1519 1520 1521 1521 1522 1522 1523 1524 1525 1525 1525 1526 1526 1526 1527 1528 1528 1528 1529 1530 1530 1531 1531 1532 1533 1533 1534 1534 1535 1535 1535 1535 1536 1537 1537
1502 1505 1508 1511 1514 1516 1517 1518 1518 1519 1520 1520 1521 1522 1522 1523 1524 1524 1525 1525 1525 1526 1526 1527 1527 1527 1528 1529 1529 1530 1530 1531 1532 1532 1533 1534 1534 1534 1534 1534 1535 1535 1536
1500 1503 1506 1509 1512 1514 1516 1517 1517 1518 1519 1520 1520 1521 1522 1523 1523 1524 1524 1525 1525 1525 1525 1526 1526 1527 1527 1528 1529 1529 1530 1530 1531 1531 1532 1533 1533 1533 1534 1534 1534 1534 1535
1499 1502 1505 1508 1510 1512 1514 1515 1516 1516 1517 1519 1519 1520 1521 1522 1522 1523 1523 1524 1524 1525 1525 1525 1525 1526 1526 1527 1528 1528 1528 1529 1530 1530 1531 1531 1532 1532 1533 1533 1533 1533 1533
1498 1501 1504 1506 1509 1511 1513 1514 1515 1515 1517 1517 1518 1519 1519 1520 1521 1522 1522 1523 1523 1523 1523 1524 1524 1525 1525 1526 1526 1527 1527 1528 1528 1529 1529 1530 1530 1531 1531 1531 1531 1532 1532
1498 1500 1503 1505 1508 1509 1511 1513 1514 1514 1515 1516 1517 1518 1518 1519 1520 1520 1520 1521 1521 1522 1522 1522 1523 1523 1524 1524 1525 1525 1526 1526 1527 1527 1528 1528 1529 1529 1529 1530 1530 1530 1530
1498 1500 1502 1505 1507 1508 1510 1511 1512 1513 1513 1514 1515 1516 1517 1517 1518 1518 1519 1519 1519 1520 1520 1521 1522 1522 1523 1523 1524 1524 1525 1525 1525 1526 1526 1526 1527 1527 1528 1528 1528 1528 1528
1498 1500 1502 1504 1506 1508 1509 1510 1511 1512 1512 1512 1513 1514 1515 1516 1516 1517 1517 1517 1518 1518 1519 1520 1520 1521 1521 1522 1522 1523 1523 1524 1524 1524 1525 1525 1525 1525 1525 1526 1526 1526 1527
1498 1500 1502 1504 1505 1506 1508 1509 1510 1511 1511 1511 1511 1512 1513 1514 1515 1515 1515 1516 1516 1517 1517 1518 1519 1520 1520 1521 1521 1521 1522 1522 1522 1522 1522 1523 1523 1523 1523 1524 1524 1524 1524
1498 1500 1502 1503 1504 1505 1506 1507 1508 1508 1509 1510 1510 1511 1511 1512 1513 1513 1514 1514 1515 1516 1516 1516 1518 1518 1519 1520 1520 1520 1520 1520 1520 1520 1521 1521 1521 1521 1521 1521 1521 1522 1522
1499 1500 1501 1502 1503 1504 1505 1505 1506 1507 1508 1508 1509 1509 1510 1511 1511 1512 1512 1513 1513 1514 1515 1515 1516 1516 1517 1518 1518 1518 1518 1518 1518 1518 1518 1519 1518 1518 1518 1518 1519 1519 1519
1499 1500 1501 1501 1502 1502 1503 1503 1504 1505 1506 1506 1507 1508 1508 1509 1509 1510 1510 1511 1512 1512 1513 1513 1513 1514 1515 1515 1516 1516 1516 1516 1516 1516 1516 1516 1516 1516 1516 1515 1516 1516 1516
1500 1500 1501 1501 1501 1501 1501 1502 1503 1503 1504 1504 1505 1506 1506 1506 1507 1508 1508 1508 1509 1510 1510 1510 1511 1511 1512 1512 1513 1513 1513 1513 1513 1513 1513 1513 1513 1513 1513 1513 1512 1512 1512
1500 1500 1500 1500 1500 1500 1500 1500 1501 1502 1502 1503 1503 1504 1504 1504 1505 1505 1505 1506 1507 1507 1507 1508 1508 1509 1508 1509 1510 1510 1510 1510 1510 1510 1510 1510 1510 1510 1510 1510 1509 1509 1509
1500 1500 1500 1499 1499 1498 1498 1498 1499 1500 1501 1501 1501 1502 1502 1502 1502 1502 1502 1503 1504 1505 1505 1505 1506 1506 1506 1506 1506 1507 1507 1507 1507 1507 1507 1507 1507 1507 1507 1506 1506 1505 1505
1499 1499 1499 1498 1498 1497 1496 1496 1497 1497 1498 1499 1499 1499 1499 1499 1499 1499 1500 1501 1501 1502 1503 1503 1503 1502 1502 1503 1503 1504 1504 1504 1504 1503 1503 1503 1503 1503 1503 1503 1502 1502 1502
1498 1498 1497 1497 1496 1496 1495 1494 1494 1495 1495 1495 1496 1495 1495 1496 1496 1496 1497 1497 1498 1498 1499 1499 1499 1499 1499 1499 1499 1500 1501 1501 1501 1501 1501 1500 1500 1500 1499 1499 1499 1498 1498
1497 1496 1496 1495 1494 1494 1493 1493 1492 1492 1492 1492 1492 1492 1492 1493 1493 1493 1493 1494 1494 1494 1495 1495 1495 1495 1495 1495 1495 1496 1497 1497 1497 1497 1497 1497 1497 1496 1496 1495 1495 1495 1494
1495 1495 1494 1493 1492 1492 1491 1490 1490 1490 1489 1488 1488 1489 1489 1489 1490 1490 1490 1490 1490 1491 1491 1491 1491 1491 1492 1491 1491 1492 1493 1493 1493 1493 1493 1493 1492 1492 1492 1491 1491 1491 1490
1493 1493 1492 1491 1490 1489 1489 1488 1487 1487 1486 1486 1485 1486 1486 1486 1485 1485 1486 1486 1487 1487 1487 1487 1487 1487 1487 1487 1487 1487 1488 1488 1489 1489 1488 1488 1488 1487 1487 1487 1486 1486 1486
1491 1490 1490 1489 1488 1487 1486 1485 1485 1484 1483 1483 1482 1482 1482 1482 1482 1482 1482 1482 1483 1483 1483 1483 1483 1483 1483 1483 1484 1484 1483 1484 1484 1484 1484 1483 1483 1483 1482 1482 1482 1481 1481